• In Hungary
  • List of Countries
  • For 7 days
  • Water Temperature
  • Satellite Maps
  • Weather Map
  • News
  • Weather Widgets
  • user-avatar
    Login

    Hourly Weather Starokizganovo

    Today, 26 September, Wednesday

    Time Temperature Precipitation Wind Pressure Humidity
    00:00 +13°C° 0.1 mm 4 mps 751 mmHg 74%
    01:00 +13°C° 0.1 mm 4 mps 751 mmHg 74%
    02:00 +13°C° 0 mm 4 mps 751 mmHg 71%
    03:00 +13°C° 0 mm 5 mps 751 mmHg 68%
    04:00 +13°C° 0 mm 5 mps 751 mmHg 67%
    05:00 +13°C° 0.1 mm 6 mps 751 mmHg 68%
    06:00 +13°C° 0.1 mm 6 mps 751 mmHg 69%
    07:00 +13°C° 0.1 mm 6 mps 751 mmHg 70%
    08:00 +13°C° 0.1 mm 6 mps 752 mmHg 69%
    09:00 +14°C° 0.1 mm 6 mps 752 mmHg 68%
    10:00 +14°C° 0.1 mm 6 mps 752 mmHg 66%
    11:00 +13°C° 0.5 mm 6 mps 752 mmHg 70%
    12:00 +13°C° 0.5 mm 5 mps 753 mmHg 74%
    13:00 +13°C° 0.5 mm 5 mps 753 mmHg 78%
    14:00 +12°C° 1.2 mm 5 mps 753 mmHg 82%
    15:00 +12°C° 1.2 mm 5 mps 753 mmHg 85%
    16:00 +12°C° 1.2 mm 4 mps 753 mmHg 88%
    17:00 +11°C° 0.2 mm 4 mps 754 mmHg 90%
    18:00 +11°C° 0.2 mm 3 mps 754 mmHg 91%
    19:00 +11°C° 0.2 mm 3 mps 754 mmHg 93%
    20:00 +10°C° 0.1 mm 3 mps 754 mmHg 92%
    21:00 +10°C° 0.1 mm 2 mps 754 mmHg 92%
    22:00 +10°C° 0.1 mm 2 mps 754 mmHg 92%
    23:00 +10°C° 0.5 mm 2 mps 754 mmHg 92%

    Tomorrow, 27 September, Thursday

    Time Temperature Precipitation Wind Pressure Humidity
    00:00 +9°C° 0.5 mm 2 mps 754 mmHg 92%
    01:00 +9°C° 0.5 mm 2 mps 753 mmHg 92%
    02:00 +9°C° 0.4 mm 2 mps 753 mmHg 92%
    03:00 +8°C° 0.4 mm 2 mps 753 mmHg 92%
    04:00 +8°C° 0.4 mm 2 mps 753 mmHg 92%
    05:00 +8°C° 0.1 mm 3 mps 753 mmHg 90%
    06:00 +8°C° 0.1 mm 3 mps 752 mmHg 88%
    07:00 +8°C° 0.1 mm 3 mps 752 mmHg 86%
    08:00 +7°C° 0 mm 4 mps 752 mmHg 81%
    09:00 +8°C° 0 mm 4 mps 752 mmHg 75%
    10:00 +8°C° 0 mm 5 mps 752 mmHg 69%
    11:00 +9°C° 0 mm 5 mps 751 mmHg 67%
    12:00 +9°C° 0 mm 6 mps 751 mmHg 64%
    13:00 +9°C° 0 mm 7 mps 750 mmHg 61%
    14:00 +10°C° 0 mm 7 mps 750 mmHg 60%
    15:00 +10°C° 0 mm 7 mps 749 mmHg 60%
    16:00 +10°C° 0 mm 7 mps 749 mmHg 59%
    17:00 +9°C° 0 mm 6 mps 748 mmHg 61%
    18:00 +8°C° 0 mm 6 mps 748 mmHg 63%
    19:00 +7°C° 0 mm 5 mps 747 mmHg 66%
    20:00 +7°C° 0.1 mm 6 mps 747 mmHg 67%
    21:00 +7°C° 0.1 mm 6 mps 746 mmHg 69%
    22:00 +7°C° 0.1 mm 6 mps 745 mmHg 70%
    23:00 +5°C° 0.5 mm 6 mps 745 mmHg 74%

    Day after tomorrow, 28 September, Friday

    Time Temperature Precipitation Wind Pressure Humidity
    00:00 +5°C° 0.5 mm 7 mps 744 mmHg 78%
    01:00 +5°C° 0.5 mm 7 mps 743 mmHg 82%
    02:00 +4°C° 0.7 mm 7 mps 743 mmHg 84%
    03:00 +4°C° 0.7 mm 7 mps 742 mmHg 85%
    04:00 +4°C° 0.7 mm 6 mps 742 mmHg 87%
    05:00 +4°C° 0.2 mm 6 mps 742 mmHg 87%
    06:00 +4°C° 0.2 mm 6 mps 743 mmHg 86%
    07:00 +5°C° 0.2 mm 6 mps 743 mmHg 86%
    08:00 +5°C° 0.1 mm 7 mps 743 mmHg 84%
    09:00 +5°C° 0.1 mm 7 mps 744 mmHg 81%
    10:00 +5°C° 0.1 mm 7 mps 744 mmHg 79%
    11:00 +5°C° 0.1 mm 7 mps 745 mmHg 77%
    12:00 +6°C° 0.1 mm 7 mps 745 mmHg 76%
    13:00 +6°C° 0.1 mm 7 mps 746 mmHg 74%
    14:00 +6°C° 0 mm 7 mps 746 mmHg 73%
    15:00 +8°C° 0 mm 6 mps 746 mmHg 72%
    16:00 +8°C° 0 mm 6 mps 746 mmHg 70%
    17:00 +8°C° 0 mm 6 mps 746 mmHg 72%
    18:00 +7°C° 0 mm 5 mps 746 mmHg 73%
    19:00 +7°C° 0 mm 5 mps 746 mmHg 75%
    20:00 +7°C° 0.3 mm 6 mps 746 mmHg 78%
    21:00 +7°C° 0.3 mm 6 mps 745 mmHg 80%
    22:00 +6°C° 0.3 mm 7 mps 745 mmHg 83%
    23:00 +6°C° 0.4 mm 8 mps 744 mmHg 82%

    29 September, Saturday

    Time Temperature Precipitation Wind Pressure Humidity
    00:00 +7°C° 0.4 mm 8 mps 743 mmHg 80%
    01:00 +8°C° 0.4 mm 9 mps 742 mmHg 79%
    02:00 +8°C° 0.8 mm 9 mps 742 mmHg 80%
    03:00 +8°C° 0.8 mm 10 mps 741 mmHg 82%
    04:00 +8°C° 0.8 mm 10 mps 741 mmHg 84%
    05:00 +8°C° 0.6 mm 10 mps 742 mmHg 84%
    06:00 +8°C° 0.6 mm 9 mps 742 mmHg 83%
    07:00 +10°C° 0.6 mm 9 mps 743 mmHg 83%
    08:00 +8°C° 0.1 mm 9 mps 744 mmHg 79%
    09:00 +9°C° 0.1 mm 8 mps 745 mmHg 76%
    10:00 +7°C° 0.1 mm 8 mps 746 mmHg 72%
    11:00 +7°C° 0 mm 8 mps 747 mmHg 68%
    12:00 +9°C° 0 mm 8 mps 747 mmHg 64%
    13:00 +9°C° 0 mm 8 mps 748 mmHg 59%
    14:00 +9°C° 0 mm 8 mps 749 mmHg 60%
    15:00 +8°C° 0 mm 7 mps 749 mmHg 61%
    16:00 +6°C° 0 mm 7 mps 750 mmHg 62%
    17:00 +5°C° 0 mm 6 mps 751 mmHg 64%
    18:00 +6°C° 0 mm 5 mps 751 mmHg 66%
    19:00 +5°C° 0 mm 3 mps 752 mmHg 69%
    20:00 +4°C° 0 mm 3 mps 752 mmHg 69%
    21:00 +4°C° 0 mm 3 mps 753 mmHg 70%
    22:00 +4°C° 0 mm 3 mps 753 mmHg 71%
    23:00 +3°C° 0 mm 3 mps 753 mmHg 72%

    30 September, Sunday

    Time Temperature Precipitation Wind Pressure Humidity
    00:00 +3°C° 0 mm 3 mps 754 mmHg 74%
    01:00 +2°C° 0 mm 3 mps 754 mmHg 76%
    02:00 +2°C° 0 mm 3 mps 754 mmHg 78%
    03:00 +2°C° 0 mm 3 mps 754 mmHg 80%
    04:00 +1°C° 0 mm 3 mps 755 mmHg 82%
    05:00 +1°C° 0 mm 3 mps 755 mmHg 81%
    06:00 +1°C° 0 mm 3 mps 755 mmHg 80%
    07:00 +2°C° 0 mm 3 mps 755 mmHg 80%
    08:00 +2°C° 0 mm 3 mps 755 mmHg 76%
    09:00 +3°C° 0 mm 3 mps 755 mmHg 73%
    10:00 +4°C° 0 mm 3 mps 755 mmHg 69%
    11:00 +5°C° 0 mm 3 mps 755 mmHg 68%
    12:00 +5°C° 0 mm 3 mps 755 mmHg 67%
    13:00 +7°C° 0 mm 3 mps 755 mmHg 66%
    14:00 +7°C° 0 mm 3 mps 755 mmHg 67%
    15:00 +7°C° 0 mm 2 mps 755 mmHg 68%
    16:00 +7°C° 0 mm 2 mps 755 mmHg 68%
    17:00 +6°C° 0.1 mm 2 mps 755 mmHg 73%
    18:00 +6°C° 0.1 mm 2 mps 755 mmHg 77%
    19:00 +6°C° 0.1 mm 1 mps 755 mmHg 81%
    20:00 +6°C° 0.1 mm 1 mps 755 mmHg 84%
    21:00 +6°C° 0.1 mm 1 mps 755 mmHg 86%
    22:00 +5°C° 0.1 mm 1 mps 755 mmHg 88%
    23:00 +4°C° 0.1 mm 2 mps 754 mmHg 89%

    1 October, Monday

    Time Temperature Precipitation Wind Pressure Humidity
    00:00 +4°C° 0.1 mm 2 mps 754 mmHg 90%
    01:00 +4°C° 0.1 mm 2 mps 754 mmHg 90%
    02:00 +4°C° 0.1 mm 2 mps 754 mmHg 90%
    03:00 +3°C° 0.1 mm 2 mps 754 mmHg 90%
    04:00 +2°C° 0.1 mm 3 mps 754 mmHg 90%
    05:00 +2°C° 0 mm 3 mps 755 mmHg 89%
    06:00 +1°C° 0 mm 3 mps 755 mmHg 88%
    07:00 +1°C° 0 mm 3 mps 755 mmHg 88%
    08:00 +2°C° 0 mm 3 mps 755 mmHg 80%
    09:00 +3°C° 0 mm 4 mps 755 mmHg 72%
    10:00 +3°C° 0 mm 5 mps 755 mmHg 64%
    11:00 +3°C° 0 mm 5 mps 755 mmHg 61%
    12:00 +5°C° 0 mm 5 mps 756 mmHg 58%
    13:00 +5°C° 0 mm 5 mps 756 mmHg 54%
    14:00 +5°C° 0 mm 4 mps 756 mmHg 54%
    15:00 +6°C° 0 mm 4 mps 756 mmHg 53%
    16:00 +6°C° 0 mm 4 mps 756 mmHg 53%
    17:00 +5°C° 0 mm 3 mps 756 mmHg 58%
    18:00 +4°C° 0 mm 3 mps 756 mmHg 64%
    19:00 +3°C° 0 mm 2 mps 756 mmHg 69%
    20:00 +4°C° 0 mm 2 mps 756 mmHg 69%
    21:00 +3°C° 0 mm 3 mps 756 mmHg 70%
    22:00 +4°C° 0 mm 3 mps 757 mmHg 70%
    23:00 +4°C° 0 mm 3 mps 757 mmHg 73%
    Show more